N5BAB Weather Reports


time (UTC)temp
C
wind
direction
speed
KPH
gust
KPH
rain 1hr
cm
rain 24hr
cm
rain mn
cm
humidity
%
barometer
mb
20260505153057 20 155 8.0 33.8 0.00 0.00 0.00 92 1006.9
20260505152543 20 159 8.0 33.8 0.00 0.00 0.00 92 1006.8
20260505152043 20 197 9.7 24.1 0.00 0.00 0.00 92 1006.9
20260505151552 20 159 8.0 24.1 0.00 0.00 0.00 92 1007.0
20260505151043 20 168 8.0 24.1 0.00 0.00 0.00 91 1007.1
20260505150543 20 172 8.0 24.1 0.00 0.00 0.00 91 1007.0
20260505140541 20 209 12.9 29.0 0.00 0.00 0.00 87 1007.1
20260505125038 20 201 8.0 25.7 0.00 0.00 0.00 85 1006.7
20260505124547 20 197 9.7 25.7 0.00 0.00 0.00 85 1006.6
20260505124039 20 201 11.3 32.2 0.00 0.00 0.00 85 1006.7
20260505123539 20 218 11.3 32.2 0.00 0.00 0.00 85 1006.6
20260505123108 20 199 11.3 24.1 0.00 0.00 0.00 84 1006.6
20260505122538 20 204 9.7 25.7 0.00 0.00 0.00 84 1006.5
20260505122038 20 222 11.3 25.7 0.00 0.00 0.00 84 1006.6
20260505121549 20 198 8.0 27.4 0.00 0.00 0.00 84 1006.4
20260505121038 20 208 11.3 27.4 0.00 0.00 0.00 84 1006.2
20260505120542 20 211 11.3 27.4 0.00 0.00 0.00 84 1006.2
20260505120051 20 185 9.7 25.7 0.00 0.00 0.00 84 1006.2
20260505115542 20 185 9.7 29.0 0.00 0.00 0.00 84 1006.2
20260505115039 20 216 12.9 29.0 0.00 0.00 0.00 84 1006.3
20260505114612 20 167 9.7 29.0 0.00 0.00 0.00 84 1006.1
20260505114042 20 195 14.5 29.0 0.00 0.00 0.00 84 1006.2
20260505113546 20 203 12.9 30.6 0.00 0.00 0.00 84 1006.1
20260505113044 20 203 12.9 30.6 0.00 0.00 0.00 84 1006.1
20260505112541 20 176 12.9 33.8 0.00 0.00 0.00 84 1006.1
20260505112041 19 204 9.7 33.8 0.00 0.00 0.00 84 1006.0
20260505111604 19 198 11.3 30.6 0.00 0.00 0.00 84 1005.9
20260505111041 19 240 14.5 30.6 0.00 0.00 0.00 84 1005.7
20260505110541 19 159 9.7 30.6 0.00 0.00 0.00 84 1005.6
20260505102040 19 157 14.5 27.4 0.00 0.00 0.00 83 1005.7
20260505101549 19 255 14.5 29.0 0.00 0.00 0.00 84 1005.6
20260505101041 19 179 11.3 29.0 0.00 0.00 0.00 83 1005.7
20260505100542 19 167 11.3 32.2 0.00 0.00 0.00 83 1005.7
20260505100052 19 191 14.5 38.6 0.00 0.00 0.00 83 1005.6
20260505095540 19 163 16.1 38.6 0.00 0.00 0.00 83 1005.7
20260505095038 19 176 12.9 29.0 0.00 0.00 0.00 83 1005.8
20260505094548 19 186 12.9 29.0 0.00 0.00 0.00 83 1005.8
20260505094042 19 172 11.3 25.7 0.00 0.00 0.00 83 1005.9
20260505093542 19 207 9.7 25.7 0.00 0.00 0.00 83 1006.0
20260505093053 19 165 12.9 25.7 0.00 0.00 0.00 83 1006.0
20260505092542 19 178 12.9 37.0 0.00 0.00 0.00 83 1006.1
20260505092042 19 173 12.9 37.0 0.00 0.00 0.00 82 1006.1
20260505091549 19 203 14.5 25.7 0.00 0.00 0.00 82 1006.2
20260505091042 19 168 11.3 33.8 0.00 0.00 0.00 82 1006.1
20260505090538 19 203 12.9 35.4 0.00 0.00 0.00 82 1006.2
20260505090058 19 206 14.5 35.4 0.00 0.00 0.00 82 1006.2
20260505085542 19 168 12.9 33.8 0.00 0.00 0.00 82 1006.1
20260505085043 19 203 14.5 25.7 0.00 0.00 0.00 82 1006.2
20260505084552 19 141 12.9 25.7 0.00 0.00 0.00 82 1006.3
20260505084041 19 209 11.3 22.5 0.00 0.00 0.00 82 1006.3
20260505083542 19 119 11.3 32.2 0.00 0.00 0.00 82 1006.4
20260505083102 19 195 12.9 32.2 0.00 0.00 0.00 82 1006.6
20260505082541 19 132 12.9 24.1 0.00 0.00 0.00 82 1006.7
20260505082041 19 127 8.0 33.8 0.00 0.00 0.00 82 1006.6
20260505081558 19 134 11.3 33.8 0.00 0.00 0.00 81 1006.7
20260505081043 19 145 11.3 29.0 0.00 0.00 0.00 81 1006.7
20260505080538 19 159 11.3 30.6 0.00 0.00 0.00 81 1006.8
20260505080050 19 161 16.1 30.6 0.00 0.00 0.00 81 1006.7
20260505075541 19 137 9.7 27.4 0.00 0.00 0.00 81 1006.7
20260505075041 19 197 12.9 43.5 0.00 0.00 0.00 80 1006.8
20260505074549 19 167 11.3 43.5 0.00 0.00 0.00 80 1006.7
20260505074041 19 184 14.5 32.2 0.00 0.00 0.00 80 1006.8
20260505073541 19 193 12.9 35.4 0.00 0.00 0.00 79 1006.9
20260505073055 19 161 16.1 35.4 0.00 0.00 0.00 79 1006.8
20260505072540 19 159 17.7 35.4 0.00 0.00 0.00 79 1006.9
20260505072041 19 203 14.5 38.6 0.00 0.00 0.00 79 1007.0
20260505071550 19 177 14.5 38.6 0.00 0.00 0.00 79 1006.9
20260505071042 19 157 17.7 38.6 0.00 0.00 0.00 79 1007.1
20260505070544 19 150 12.9 38.6 0.00 0.00 0.00 79 1007.2
20260505070053 19 157 14.5 29.0 0.00 0.00 0.00 79 1007.2
20260505065543 19 160 16.1 32.2 0.00 0.00 0.00 79 1007.3
20260505065041 19 191 12.9 32.2 0.00 0.00 0.00 79 1007.4
20260505064556 19 150 12.9 30.6 0.00 0.00 0.00 78 1007.5
20260505064041 19 168 14.5 27.4 0.00 0.00 0.00 78 1007.4
20260505063541 19 143 11.3 29.0 0.00 0.00 0.00 78 1007.5
20260505063053 19 154 14.5 29.0 0.00 0.00 0.00 78 1007.6
20260505062542 19 165 12.9 29.0 0.00 0.00 0.00 78 1007.7
20260505062041 19 150 11.3 25.7 0.00 0.00 0.00 78 1007.8
20260505061552 19 159 12.9 27.4 0.00 0.00 0.00 77 1007.9
20260505061042 19 178 11.3 27.4 0.00 0.00 0.00 77 1008.0
20260505060542 19 209 14.5 27.4 0.00 0.00 0.00 77 1007.9
20260505060103 19 148 12.9 24.1 0.00 0.00 0.00 77 1007.9
20260505055543 19 154 11.3 25.7 0.00 0.00 0.00 77 1008.0
20260505055041 19 167 11.3 32.2 0.00 0.00 0.00 76 1007.9
20260505054558 19 175 14.5 32.2 0.00 0.00 0.00 76 1008.0
20260505054041 19 145 11.3 27.4 0.00 0.00 0.00 76 1008.0
20260505053614 19 155 12.9 25.7 0.00 0.00 0.00 76 1008.0
20260505053109 19 182 11.3 27.4 0.00 0.00 0.00 76 1008.1
20260505052541 19 193 11.3 27.4 0.00 0.00 0.00 75 1008.2
20260505052042 19 155 9.7 22.5 0.00 0.00 0.00 75 1008.1
20260505051555 19 130 9.7 25.7 0.00 0.00 0.00 75 1008.1
20260505051042 19 150 9.7 25.7 0.00 0.00 0.00 75 1008.2
20260505050541 20 184 11.3 24.1 0.00 0.00 0.00 75 1008.2
20260505041610 20 186 9.7 25.7 0.00 0.00 0.00 71 1008.5
20260505041042 20 172 14.5 25.7 0.00 0.00 0.00 71 1008.6
20260505040543 20 174 9.7 27.4 0.00 0.00 0.00 71 1008.5
20260505040051 20 238 9.7 27.4 0.00 0.00 0.00 70 1008.5
20260505035543 20 150 8.0 19.3 0.00 0.00 0.00 70 1008.5
20260505035045 20 200 6.4 20.9 0.00 0.00 0.00 70 1008.5
20260505034553 20 174 11.3 25.7 0.00 0.00 0.00 69 1008.5
20260505034045 20 99 9.7 25.7 0.00 0.00 0.00 69 1008.3
20260505033542 20 168 9.7 22.5 0.00 0.00 0.00 69 1008.5
20260505033049 20 177 11.3 24.1 0.00 0.00 0.00 69 1008.4
20260505032543 20 172 9.7 24.1 0.00 0.00 0.00 68 1008.3
20260505032040 20 114 12.9 24.1 0.00 0.00 0.00 68 1008.3
20260505031600 20 168 9.7 25.7 0.00 0.00 0.00 68 1008.3
20260505031044 20 188 8.0 25.7 0.00 0.00 0.00 68 1008.3
20260505030542 20 168 9.7 19.3 0.00 0.00 0.00 68 1008.3
20260505030056 20 143 8.0 17.7 0.00 0.00 0.00 68 1008.4
20260505025541 20 177 9.7 17.7 0.00 0.00 0.00 67 1008.5
20260505025041 20 168 8.0 17.7 0.00 0.00 0.00 67 1008.4
20260505024552 20 168 8.0 16.1 0.00 0.00 0.00 67 1008.3
20260505024040 20 161 6.4 16.1 0.00 0.00 0.00 67 1008.4
20260505023540 20 149 4.8 16.1 0.00 0.00 0.00 67 1008.3
20260505023100 20 0 6.4 14.5 0.00 0.00 0.00 67 1008.3
20260505022541 20 199 8.0 17.7 0.00 0.00 0.00 67 1008.3
20260505022040 20 195 8.0 17.7 0.00 0.00 0.00 67 1008.2
20260505021548 20 150 6.4 14.5 0.00 0.00 0.00 66 1008.1
20260505021040 20 157 3.2 14.5 0.00 0.00 0.00 66 1008.0
20260505020541 20 154 4.8 12.9 0.00 0.00 0.00 66 1007.9
20260505020048 20 152 8.0 12.9 0.00 0.00 0.00 66 1007.8
20260505015544 20 95 6.4 14.5 0.00 0.00 0.00 66 1007.7
20260505015041 21 168 3.2 14.5 0.00 0.00 0.00 65 1007.7
20260505014553 21 147 6.4 12.9 0.00 0.00 0.00 65 1007.6
20260505014038 21 197 6.4 12.9 0.00 0.00 0.00 64 1007.6
20260505013542 21 150 4.8 12.9 0.00 0.00 0.00 63 1007.7
20260505013054 21 151 4.8 12.9 0.00 0.00 0.00 62 1007.7
20260505012540 21 174 4.8 14.5 0.00 0.00 0.00 62 1007.7
20260505012042 21 157 6.4 16.1 0.00 0.00 0.00 62 1007.7
20260505011544 21 165 6.4 16.1 0.00 0.00 0.00 61 1007.7
20260505011041 22 154 6.4 17.7 0.00 0.00 0.00 60 1007.6
20260505010542 22 192 8.0 17.7 0.00 0.00 0.00 60 1007.9
20260505010051 22 154 8.0 17.7 0.00 0.00 0.00 59 1007.7
20260505005540 22 177 6.4 19.3 0.00 0.00 0.00 58 1007.9
20260505005040 22 167 8.0 22.5 0.00 0.00 0.00 58 1007.7
20260505004549 23 175 9.7 25.7 0.00 0.00 0.00 57 1007.8
20260505004041 23 163 11.3 25.7 0.00 0.00 0.00 57 1007.8
20260505003541 23 150 9.7 25.7 0.00 0.00 0.00 56 1007.9
20260505003050 23 165 9.7 32.2 0.00 0.00 0.00 56 1007.9
20260505002543 23 206 4.8 32.2 0.00 0.00 0.00 54 1007.9
20260505002041 23 134 14.5 37.0 0.00 0.00 0.00 54 1007.9
20260505001554 24 168 12.9 41.8 0.00 0.00 0.00 54 1007.8
20260505001041 24 178 17.7 41.8 0.00 0.00 0.00 53 1007.9
20260505000543 24 155 12.9 37.0 0.00 0.00 0.00 53 1007.7
20260505000055 25 195 14.5 25.7 0.00 0.00 0.00 53 1008.0
20260504235542 25 202 12.9 33.8 0.00 0.00 0.00 52 1008.0
20260504235041 25 186 14.5 33.8 0.00 0.00 0.00 51 1008.1
20260504234602 25 190 12.9 38.6 0.00 0.00 0.00 51 1008.1
20260504234040 25 150 14.5 38.6 0.00 0.00 0.00 51 1008.1
20260504233542 26 179 12.9 33.8 0.00 0.00 0.00 51 1008.2
20260504233046 26 197 16.1 35.4 0.00 0.00 0.00 50 1008.1
20260504232540 26 161 16.1 35.4 0.00 0.00 0.00 49 1008.2
20260504232040 26 208 8.0 30.6 0.00 0.00 0.00 49 1008.3
20260504231559 26 200 14.5 37.0 0.00 0.00 0.00 50 1008.3
20260504231042 26 136 17.7 37.0 0.00 0.00 0.00 49 1008.3
20260504230541 26 195 12.9 38.6 0.00 0.00 0.00 49 1008.4
20260504230052 26 175 16.1 41.8 0.00 0.00 0.00 48 1008.4
20260504225542 26 163 20.9 41.8 0.00 0.00 0.00 48 1008.5
20260504225042 26 179 19.3 35.4 0.00 0.00 0.00 48 1008.6
20260504224555 26 179 17.7 37.0 0.00 0.00 0.00 50 1008.6
20260504224042 26 172 17.7 37.0 0.00 0.00 0.00 49 1008.8
20260504223539 26 177 16.1 33.8 0.00 0.00 0.00 49 1008.8
20260504223055 26 199 14.5 33.8 0.00 0.00 0.00 50 1008.9
20260504222538 26 236 11.3 38.6 0.00 0.00 0.00 50 1008.9
20260504222041 26 215 17.7 40.2 0.00 0.00 0.00 51 1008.9
20260504221556 26 137 17.7 40.2 0.00 0.00 0.00 50 1009.0
20260504221039 26 150 8.0 33.8 0.00 0.00 0.00 51 1009.1
20260504220542 26 168 17.7 35.4 0.00 0.00 0.00 48 1009.0
20260504220053 27 205 14.5 38.6 0.00 0.00 0.00 47 1009.3
20260504215541 27 207 17.7 40.2 0.00 0.00 0.00 48 1009.2
20260504215042 27 209 22.5 40.2 0.00 0.00 0.00 47 1009.2
20260504214552 27 213 17.7 40.2 0.00 0.00 0.00 46 1009.5
20260504214040 27 159 20.9 40.2 0.00 0.00 0.00 47 1009.4
20260504213540 27 233 17.7 43.5 0.00 0.00 0.00 46 1009.7
20260504213053 27 167 20.9 43.5 0.00 0.00 0.00 46 1009.7
20260504212541 27 157 17.7 35.4 0.00 0.00 0.00 46 1009.9
20260504212041 27 167 12.9 41.8 0.00 0.00 0.00 47 1009.8
20260504211551 27 186 17.7 41.8 0.00 0.00 0.00 47 1009.9
20260504211042 27 222 20.9 41.8 0.00 0.00 0.00 44 1010.0
20260504210542 27 203 16.1 43.5 0.00 0.00 0.00 45 1010.1
20260504210104 27 195 20.9 45.1 0.00 0.00 0.00 45 1010.3
20260504205544 27 132 20.9 45.1 0.00 0.00 0.00 47 1010.3
20260504205042 27 134 20.9 38.6 0.00 0.00 0.00 46 1010.3
20260504204553 28 191 16.1 38.6 0.00 0.00 0.00 46 1010.4
20260504204043 28 185 12.9 38.6 0.00 0.00 0.00 47 1010.5
20260504203542 27 211 16.1 40.2 0.00 0.00 0.00 46 1010.6
20260504203052 27 167 17.7 40.2 0.00 0.00 0.00 45 1010.6
20260504202540 28 176 19.3 35.4 0.00 0.00 0.00 46 1010.8
20260504202040 28 163 17.7 38.6 0.00 0.00 0.00 46 1010.8
20260504201551 27 159 19.3 38.6 0.00 0.00 0.00 46 1011.0
20260504201040 27 129 14.5 37.0 0.00 0.00 0.00 48 1010.9
20260504200542 27 146 16.1 37.0 0.00 0.00 0.00 46 1011.1
20260504200051 27 231 12.9 38.6 0.00 0.00 0.00 46 1011.2
20260504195539 27 143 17.7 38.6 0.00 0.00 0.00 46 1011.4
20260504195042 27 165 14.5 43.5 0.00 0.00 0.00 46 1011.6
20260504194607 27 220 17.7 43.5 0.00 0.00 0.00 47 1011.6
20260504194041 27 168 12.9 40.2 0.00 0.00 0.00 48 1011.6
20260504193543 27 219 17.7 41.8 0.00 0.00 0.00 47 1011.7
20260504193044 27 161 19.3 41.8 0.00 0.00 0.00 47 1011.8
20260504192542 27 175 19.3 45.1 0.00 0.00 0.00 46 1011.8
20260504192040 27 174 20.9 45.1 0.00 0.00 0.00 47 1011.9
20260504191551 27 157 14.5 38.6 0.00 0.00 0.00 50 1012.0
20260504191040 27 177 12.9 33.8 0.00 0.00 0.00 47 1012.1
20260504190539 27 225 16.1 48.3 0.00 0.00 0.00 46 1012.2
20260504190113 26 211 17.7 48.3 0.00 0.00 0.00 48 1012.2
20260504185542 26 209 29.0 48.3 0.00 0.00 0.00 48 1012.3
20260504185040 26 224 17.7 40.2 0.00 0.00 0.00 46 1012.3
20260504184556 26 206 14.5 38.6 0.00 0.00 0.00 46 1012.7
20260504184043 26 224 17.7 38.6 0.00 0.00 0.00 47 1012.8
20260504183543 26 222 17.7 38.6 0.00 0.00 0.00 47 1012.7
20260504183050 26 199 16.1 40.2 0.00 0.00 0.00 49 1012.8
20260504182542 26 182 16.1 40.2 0.00 0.00 0.00 49 1012.9
20260504182042 26 223 17.7 40.2 0.00 0.00 0.00 48 1013.0
20260504181556 26 150 20.9 41.8 0.00 0.00 0.00 50 1013.2
20260504181039 25 215 22.5 41.8 0.00 0.00 0.00 48 1013.2
20260504180540 26 242 20.9 37.0 0.00 0.00 0.00 46 1013.4
20260504180143 26 201 14.5 61.2 0.00 0.00 0.00 48 1013.4
20260504175542 26 159 24.1 61.2 0.00 0.00 0.00 48 1013.5
20260504175044 26 235 22.5 45.1 0.00 0.00 0.00 49 1013.6
20260504174552 26 136 16.1 35.4 0.00 0.00 0.00 52 1013.6
20260504174045 26 198 12.9 35.4 0.00 0.00 0.00 50 1013.7
20260504173544 25 195 19.3 38.6 0.00 0.00 0.00 49 1013.7
20260504173102 26 195 14.5 38.6 0.00 0.00 0.00 49 1013.8
20260504172542 25 155 16.1 41.8 0.00 0.00 0.00 49 1013.8
20260504172042 25 233 16.1 41.8 0.00 0.00 0.00 49 1013.8
20260504171553 25 211 20.9 41.8 0.00 0.00 0.00 48 1013.9
20260504171117 25 242 20.9 38.6 0.00 0.00 0.00 48 1014.0
20260504170542 25 234 19.3 48.3 0.00 0.00 0.00 51 1013.9